Printer-friendly version

IAU Minor Planet Center

Minor Planet Center

MPEC 2008-A74 : 2008 AF32

The following Minor Planet Electronic Circular may be linked-to from your own Web pages, but must not otherwise be redistributed electronically.


Read MPEC 2008-A73 Read MPEC 2008-A75


M.P.E.C. 2008-A74                                Issued 2008 Jan. 15, 17:40 UT

     The Minor Planet Electronic Circulars contain information on unusual
         minor planets and routine data on comets.  They are published
   on behalf of Commission 20 of the International Astronomical Union by the
          Minor Planet Center, Smithsonian Astrophysical Observatory,
                          Cambridge, MA 02138, U.S.A.

             Prepared using the Tamkin Foundation Computer Network

                              MPC@CFA.HARVARD.EDU
          URL http://www.cfa.harvard.edu/iau/mpc.html  ISSN 1523-6714

                                   2008 AF32

Observations:
     K08A32F* C2008 01 13.33856 10 16 29.89 +45 43 14.3          19.3 V EA074703
     K08A32F  C2008 01 13.34520 10 16 31.18 +45 44 08.9          19.2 V EA074703
     K08A32F  C2008 01 13.35183 10 16 32.59 +45 45 02.1          19.6 V EA074703
     K08A32F  C2008 01 13.35844 10 16 33.96 +45 45 57.7          19.5 V EA074703
     K08A32F  C2008 01 15.23316 10 24 03.27 +49 57 20.2          19.3 V EA074703
     K08A32F  C2008 01 15.23450 10 24 03.56 +49 57 30.1          19.5 V EA074703
     K08A32F  C2008 01 15.23585 10 24 03.81 +49 57 40.8          19.1 V EA074703
     K08A32F  C2008 01 15.23721 10 24 04.17 +49 57 52.4          18.9 V EA074703
     K08A32F  C2008 01 15.40657 10 24 42.85 +50 20 26.5          19.2 R EA074734
     K08A32F  C2008 01 15.41004 10 24 43.62 +50 20 54.5          18.9 R EA074734
     K08A32F  C2008 01 15.41348 10 24 44.43 +50 21 21.0          18.9 R EA074734
     K08A32F  C2008 01 15.41692 10 24 45.23 +50 21 48.5          18.9 R EA074734

Observer details:
703 Catalina Sky Survey.  Observer R. A. Kowalski.  Measurers E. C. Beshore,
    A. Boattini, G. J. Garradd, A. R. Gibbs, A. D. Grauer, R. E. Hill,
    R. A. Kowalski, S. M. Larson, R. H. McNaught.  0.68-m Schmidt + CCD.
734 Farpoint Observatory.  Observer G. Hug.  0.7-m reflector + CCD.

Orbital elements:
2008 AF32                                                Earth MOID = 0.1807 AU
Epoch 2007 Oct. 27.0 TT = JDT 2454400.5                 MPC
M 243.48237              (2000.0)            P               Q
n   0.74802840     Peri.   81.10532     -0.89234538     +0.12641562
a   1.2018695      Node   105.24035     -0.25251358     -0.93550926
e   0.1065412      Incl.   26.68479     +0.37410775     -0.32991136
P   1.32           H   21.1           G   0.15           U   8
Residuals in seconds of arc
080113 703  0.5+  0.4+    080115 703  0.5+  0.7+    080115 734  0.2+  0.3-
080113 703  0.4-  0.3+    080115 703  0.2+  0.3-    080115 734  0.2-  0.4+
080113 703  0.1-  1.0-    080115 703  0.5-  0.5-    080115 734  0.0   0.3-
080113 703  0.0   0.3+    080115 703  0.2-  0.1+    080115 734  0.0   0.1+

Ephemeris:
2008 AF32                a,e,i = 1.20, 0.11, 27                  q = 1.0738
Date    TT    R. A. (2000) Decl.     Delta      r     Elong.  Phase     V
2008 01 15    10 23.02   +49 26.4    0.203    1.142   137.9    35.3    19.4
2008 01 25    11 20.58   +68 28.7    0.227    1.127   123.8    46.5    19.9
2008 02 04    13 22.78   +79 08.0    0.273    1.113   111.0    55.7    20.5
2008 02 14    16 24.32   +81 28.3    0.325    1.101   101.8    61.4    21.1
2008 02 24    18 09.07   +80 05.4    0.375    1.091    95.4    64.6    21.4
2008 03 05    18 49.88   +78 39.1    0.419    1.083    90.9    66.4    21.7
2008 03 15    19 02.31   +77 43.8    0.453    1.077    87.8    67.3    21.9
2008 03 25    18 59.06   +77 09.6    0.477    1.074    85.9    67.8    22.0
2008 04 04    18 44.54   +76 43.9    0.489    1.074    84.9    68.1    22.1
2008 04 14    18 20.07   +76 10.7    0.489    1.076    84.9    68.1    22.1
2008 04 24    17 47.75   +75 09.8    0.478    1.082    85.8    68.0    22.1
2008 05 04    17 10.86   +73 18.6    0.456    1.089    87.6    67.7    22.0
2008 05 14    16 34.08   +70 06.6    0.425    1.099    90.4    66.9    21.8
2008 05 24    16 02.39   +64 59.1    0.388    1.111    94.2    65.4    21.6
2008 06 03    15 38.17   +57 14.6    0.349    1.124    99.2    62.9    21.3
2008 06 13    15 22.14   +46 05.9    0.315    1.139   105.2    59.3    21.0
2008 06 23    15 13.73   +31 16.8    0.293    1.155   111.2    55.1    20.8
2008 07 03    15 11.83   +14 00.5    0.292    1.172   115.2    51.7    20.7
2008 07 13    15 15.74   -02 49.7    0.318    1.188   115.5    50.5    20.9
2008 07 23    15 24.73   -16 49.2    0.366    1.205   112.7    51.1    21.2
2008 08 02    15 38.31   -27 27.8    0.430    1.222   108.6    51.9    21.6
2008 08 12    15 56.32   -35 19.8    0.503    1.238   104.3    52.5    22.0
2008 08 22    16 18.48   -41 08.0    0.582    1.253   100.2    52.6    22.3

Timothy B. Spahr             (C) Copyright 2008 MPC           M.P.E.C. 2008-A74

Read MPEC 2008-A73 Read MPEC 2008-A75


Our Web policy. Index to the CBAT/MPC/ICQ pages.


Valid HTML 4.01!